Regional Weather Roundup
Issued by NWS Northern Indiana

Home | Current Version | Previous Version | Text Only | Print | Product List | Glossary Off
Versions: 1 2 3 4 5 6 7 8 9 10 11 12 13 14 15 16 17 18 19 20 21 22 23 24 25 26 27 28 29 30 31 32 33 34 35 36 37 38 39 40 41 42 43 44 45 46 47 48 49 50

000
ASUS43 KIWX 180510
RWRIWX

KIWX WEATHER ROUNDUP
NATIONAL WEATHER SERVICE NORTHERN INDIANA
1200 AM EST MON DEC 18 2017

NOTE: "FAIR" INDICATES FEW OR NO CLOUDS BELOW 12,000 FEET WITH NO
SIGNIFICANT WEATHER AND/OR OBSTRUCTIONS TO VISIBILITY.

* THESE STATIONS ARE NOT UNDER NWS QUALITY CONTROL. THEY ALSO MAY NOT
  REPORT WEATHER SUCH AS PRECIPITATION OR FOG.

INZ001>027-180600-
NORTHERN INDIANA

CITY           SKY/WX    TMP DP  RH WIND       PRES   REMARKS
GARY*          CLOUDY    45  38  76 S6        30.01S
VALPARAISO     CLOUDY    43  38  82 SW7       30.02R
MICHIGAN CITY* CLOUDY    39  36  87 S7        30.02R
LAPORTE*       CLOUDY    38  36  90 SW7       30.02R
KNOX*          CLOUDY    41  37  87 S8        30.01S
SOUTH BEND     CLOUDY    38  36  92 SW9       30.01F
GOSHEN         CLOUDY    39  36  89 SW10      30.02S
MONTICELLO*    CLOUDY    41  38  89 SW12      30.03F
LOGANSPORT*    CLOUDY    37  36  93 S9        30.04F
ROCHESTER*     MOCLDY    41  39  93 SW8       30.03F
WARSAW*        CLOUDY    39  37  93 SW5       30.03S
AUBURN*        CLOUDY    39  36  87 SW3       30.04S
FORT WAYNE     CLOUDY    39  36  89 SW7       30.05F
HUNTINGTON*    CLOUDY    39  37  92 SW5       30.04F
PERU/GRISSOM   CLOUDY    40  40 100 SW8       30.03F
MARION*        CLOUDY    37  35  90 S7        30.06F

$$
INZ028>050-180600-
CENTRAL INDIANA

CITY           SKY/WX    TMP DP  RH WIND       PRES   REMARKS
LAFAYETTE      CLOUDY    41  39  93 SW7       30.04F
KOKOMO*        CLOUDY    40  37  89 S9        30.05F
MUNCIE*        CLOUDY    42  34  73 SW8       30.06F
INDIANAPOLIS   CLOUDY    40  37  89 S7        30.07F

$$
MIZ043>046-050>051-056>058-064>065-071>073-077>080-180600-
SOUTHWEST LOWER MICHIGAN

CITY           SKY/WX    TMP DP  RH WIND       PRES   REMARKS
BATTLE CREEK   CLOUDY    37  33  85 SW9       29.99S
BENTON HARBOR  CLOUDY    40  34  79 S6        29.99F
COLDWATER*     CLOUDY    37  36  94 SW7       30.00S
HILLSDALE*     CLOUDY    34  32  93 S8        29.99F FOG     WCI  27
HOLLAND        CLOUDY    32  29  88 SW3       29.97F
GRAND RAPIDS   CLOUDY    28  27  96 S5        29.96F FOG     WCI  23
KALAMAZOO      CLOUDY    38  34  85 S7        29.99F
STURGIS*       CLOUDY    37  36  93 SW8       30.00F
THREE RIVERS*  CLOUDY    38  35  87 SW7       30.01F

$$
OHZ001>008-015>018-024>025-180600-
NORTHWEST OHIO

CITY           SKY/WX    TMP DP  RH WIND       PRES   REMARKS
WAUSEON*       CLOUDY    37  37 100 SW8       30.03S
DEFIANCE       CLOUDY    39  34  82 SW8       30.05S
FINDLAY        CLOUDY    38  32  79 S10       30.05F
TOLEDO EXPRESS CLOUDY    39  37  92 SW7       30.04F
TOLEDO METCALF CLOUDY    38  35  89 SW9       30.05F
LIMA           CLOUDY    37  35  92 S8        30.06F

$$
AND FOR LAKE MICHIGAN COASTAL AND OPEN LAKE BUOY OBSERVATIONS

STATION/POSITION TEMP    WIND        PRES    VSBY  WAVE
                 AIR SEA DIR/SP/G                  HT/PER
                 (F)     (DEG/KT/KT) (MB)    (MI)  (FT/S)
CALUMET HARBOR    44     200/  7/  9 1015.1R
MICHIGAN CITY     42     180/  9/ 11   N/A
BURNS HARBOR      43     200/ 10/ 13 1016.3S
SAINT JOSEPH      42     200/ 11/ 14 1016.3

$$
&&




USA.gov is the U.S. government's official web portal to all federal, state and local government web resources and services.